Flag for Hungary Weather past 2 weeks in Budapest, Hungary

Now
79 °F

Passing clouds.


Feels Like: 78 °F
Forecast: 55 / 79 °F
Wind: 8 mph from Southeast

Location: Ferenc Liszt International Airport

Current Time: Aug 1, 2015 at 2:51:09 PM

Latest Report: Aug 1, 2015 at 2:30 PM


Visibility: N/A

Pressure: 30.07 "Hg

Humidity: 28%

Dew point: 43 °F

Location of BudapestLocation

Historic Weather in Budapest — Graph

°F

Budapest temperature yesterday

Maximum temperature yesterday: 79 °F (at 4:00 PM)
Minimum temperature yesterday: 59 °F (at 12:00 AM)
Average temperature yesterday: 68 °F

Past Weeks' High & Low Weather Summary

 TemperatureHumidityPressure
High97 °F (Jul 18, 3:00 PM)100% (Jul 24, 2:30 AM)30.09 "Hg (Jul 24, 2:30 AM)
Low50 °F (Jul 27, 4:30 AM)23% (Jul 31, 4:00 PM)29.68 "Hg (Jul 25, 4:30 PM)
Average75 °F64%29.92 "Hg
* Reported Jul 17 1:00 PM — Aug 1 1:30 PM, Budapest, Weather by CustomWeather, © 2015

Note: Actual official high and low records may vary slightly from our data, if they occured in-between our weather recording intervals... More about our weather records

Advertising

Budapest weather history for previous 24 hours

 ConditionsComfort  
Time TempWeatherWind HumidityBarometerVisibility
1:30 PM
Sat, Aug 1
79 °FSunny.2 mph32%30.09 "Hg10 mi
1:00 PM77 °FPassing clouds.6 mph26%30.09 "HgN/A
12:30 PM75 °FPassing clouds.8 mph31%30.09 "HgN/A
12:00 PM75 °FPassing clouds.7 mph31%30.09 "HgN/A
11:30 AM75 °FPassing clouds.8 mph31%30.09 "HgN/A
11:00 AM75 °FPassing clouds.9 mph36%30.09 "HgN/A
10:30 AM73 °FSunny.12 mph31%30.09 "Hg10 mi
10:00 AM72 °FSunny.12 mph38%30.09 "Hg10 mi
9:30 AM72 °FSunny.15 mph38%30.09 "Hg10 mi
9:00 AM72 °FSunny.9 mph47%30.09 "Hg10 mi
8:30 AM70 °FPassing clouds.8 mph43%30.09 "HgN/A
8:00 AM70 °FPassing clouds.9 mph40%30.09 "HgN/A
7:30 AM66 °FSunny.3 mph52%30.09 "Hg10 mi
7:00 AM63 °FSunny.1 mph52%30.09 "Hg10 mi
6:30 AM59 °FSunny.2 mph63%30.09 "Hg10 mi
6:00 AM54 °FClear.2 mph72%30.09 "Hg10 mi
5:30 AM59 °FClear.8 mph59%30.07 "Hg10 mi
5:00 AM52 °FClear.2 mph88%30.07 "Hg10 mi
4:30 AM59 °FClear.6 mph59%30.07 "Hg10 mi
4:00 AM57 °FClear.6 mph63%30.07 "Hg10 mi
3:30 AM59 °FClear.7 mph63%30.07 "Hg10 mi
3:00 AM57 °FClear.7 mph67%30.07 "Hg10 mi
2:30 AM57 °FClear.8 mph67%30.07 "Hg10 mi
2:00 AM57 °FClear.9 mph67%30.07 "Hg10 mi
1:30 AM57 °FClear.10 mph67%30.07 "Hg10 mi
1:00 AM63 °FClear.9 mph52%30.07 "Hg10 mi
12:30 AM63 °FPassing clouds.7 mph52%30.07 "HgN/A
12:00 AM63 °FClear.9 mph52%30.07 "Hg10 mi
11:30 PM
Fri, Jul 31
61 °FClear.6 mph55%30.07 "Hg10 mi
11:00 PM64 °FPassing clouds.9 mph49%30.04 "HgN/A
10:30 PM59 °FClear.No wind72%30.04 "Hg10 mi
10:00 PM61 °FClear.2 mph63%30.04 "Hg10 mi
9:30 PM63 °FClear.2 mph64%30.04 "Hg10 mi
9:00 PM63 °FSunny.No wind64%30.04 "Hg10 mi
8:30 PM66 °FSunny.2 mph52%30.01 "Hg10 mi
8:00 PM73 °FSunny.3 mph36%30.01 "Hg10 mi
7:30 PM77 °FSunny.5 mph26%30.01 "Hg10 mi
7:00 PM79 °FSunny.3 mph24%30.01 "Hg10 mi
6:30 PM79 °FPassing clouds.6 mph24%29.98 "HgN/A
6:00 PM79 °FSunny.7 mph24%30.01 "Hg10 mi
5:30 PM79 °FSunny.12 mph24%30.01 "Hg10 mi
5:00 PM79 °FPassing clouds.7 mph26%30.01 "HgN/A
4:30 PM79 °FPassing clouds.10 mph24%30.01 "HgN/A
4:00 PM79 °FPassing clouds.10 mph23%30.01 "HgN/A
3:30 PM77 °FPassing clouds.9 mph28%30.01 "HgN/A
3:00 PM77 °FPassing clouds.9 mph26%30.01 "HgN/A
2:30 PM77 °FSunny.12 mph30%30.01 "Hg10 mi
2:00 PM77 °FSunny.13 mph32%30.01 "Hg10 mi
Weather by CustomWeather, © 2015

See weather overviewHow to use our weather pages